AirNav   Air Wisconsin pilot careers
 
 457 users online  

7F7 Clifton Municipal Airport/Isenhower Field
Clifton, Texas, USA

GOING TO CLIFTON?


FAA INFORMATION EFFECTIVE 06 DECEMBER 2018

Location

FAA Identifier: 7F7
Lat/Long: 31-49-01.6800N / 097-34-10.4500W
31-49.028000N / 097-34.174167W
31.8171333 / -97.5695694
(estimated)
Elevation: 760 ft. / 232 m (estimated)
Variation: 07E (1985)
From city: 2 miles N of CLIFTON, TX
Time zone: UTC -6 (UTC -5 during Daylight Saving Time)
Zip code: 76634

Airport Operations

Airport use: Open to the public
Activation date: 05/1966
Control tower: no
ARTCC: FORT WORTH CENTER
FSS: FORT WORTH FLIGHT SERVICE STATION
NOTAMs facility: FTW (NOTAM-D service available)
Attendance: MON-FRI 0900-1630
FOR ARPT ATTENDANT ON SAT & SUN CALL 254-978-0020 OR 254-253-0859; AFT HR FEE.
Wind indicator: lighted
Segmented circle: no
Lights: DUSK-DAWN. MIRL RY 14/32 PRESET LOW INTST; TO INCR INTST ACTVT - CTAF.
Beacon: white-green (lighted land airport)
Operates sunset to sunrise.

Airport Communications

CTAF/UNICOM: 122.8

Nearby radio navigation aids

VOR radial/distance  VOR name  Freq  Var
ACTr292/17.9WACO VORTAC115.3009E
JENr137/25.8GLEN ROSE VORTAC115.0006E
TPLr340/37.2TEMPLE VOR/DME110.4009E

 
NDB name  Hdg/Dist  Freq  Var  ID
ROBINSON299/31.740007EROB .-. --- -...

Airport Services

Fuel available: 100LL
Parking: hangars and tiedowns
Airframe service: MAJOR
Powerplant service: MAJOR
Bottled oxygen: HIGH

Runway Information

Runway 14/32

Dimensions: 3000 x 50 ft. / 914 x 15 m
Surface: asphalt, in fair condition
Weight bearing capacity: 
Single wheel: 13.0
Runway edge lights: medium intensity
Gradient: NW.
RUNWAY 14  RUNWAY 32
Latitude: 31-49.238333N31-48.817500N
Longitude: 097-34.326667W097-34.021667W
Elevation: 756.0 ft.748.0 ft.
Gradient: 0.3%0.3% UP
Traffic pattern: leftleft
Runway heading: 142 magnetic, 149 true322 magnetic, 329 true
Displaced threshold: no150 ft.
Markings: basic, in good conditionbasic, in good condition
Visual slope indicator: 2-light PAPI on left (3.00 degrees glide path)2-light PAPI on right (3.00 degrees glide path)
Obstructions: 160 ft. hill, 5500 ft. from runway, 33:1 slope to clear25 ft. trees, 200 ft. from runway, 56 ft. left of centerline
8 FT FENCE 190 FT FM THLD ON EXTNDD CNTRLN.

Airport Ownership and Management from official FAA records

Ownership: Publicly-owned
Owner: CITY OF CLIFTON
PO BOX 231
CLIFTON, TX 76634
Phone 254-675-8337
Manager: TIM TALLEY
PO BOX 249
CLIFTON, TX 76634
Phone 254-675-3771

Airport Operational Statistics

Aircraft based on the field: 11
Single engine airplanes: 11
    
Aircraft operations: avg 123/week *
75% local general aviation
25% transient general aviation
* for 12-month period ending 29 March 2016

Additional Remarks

STEEP DROP OFF NORTH OF RWY 14.
GRVL ON NE END OF TWY.
RY 14 HAS WATER PONDING AT END OF RY AFT HVY RAIN.
SECURITY GATE LOCKED AFTER HRS. FOR ACCESS CONTACT 254-675-6620.

Instrument Procedures

There are no published instrument procedures at 7F7.

Some nearby airports with instrument procedures:

KACT - Waco Regional Airport (21 nm SE)
KPWG - Mc Gregor Executive Airport (24 nm SE)
KCNW - TSTC Waco Airport (27 nm SE)
KINJ - Hillsboro Municipal Airport (29 nm NE)
KMNZ - Hamilton Municipal Airport (31 nm W)
 
Loc | Ops | Rwys | IFR | FBO | Links
Com | Nav | Svcs | Stats | Notes


 
Area around 7F7 (Clifton Municipal Airport/Isenhower Field)
 
Road maps at: MapQuest Bing Google
 
Aerial photo
WARNING: Photo may not be current or correct
Aerial photo of 7F7 (Clifton Municipal Airport/Isenhower Field)
Photo by Bill Gunn, Texas DOT Aviation Division
Photo taken 27-Oct-2005

Do you have a better or more recent aerial photo of Clifton Municipal Airport/Isenhower Field that you would like to share? If so, please send us your photo.

 
Sectional chart

 
Airport distance calculator
Flying to Clifton Municipal Airport/Isenhower Field? Find the distance to fly.

From to 7F7

Sunrise and sunset
Times for 19-Dec-2018
 Local
(UTC-6)
 Zulu
(UTC)
Morning civil twilight06:5912:59
Sunrise07:2613:26
Sunset17:2823:28
Evening civil twilight17:5523:55

Current date and time
Zulu (UTC)  19-Dec-2018 06:23:11
Local (UTC-6)  19-Dec-2018 00:23:11
 
METAR
KACT 
21nm SE 
190551Z AUTO 14011KT 6SM BR BKN005 BKN070 OVC090 12/11 A2995 RMK AO2 RAB10E20B32E44 SLP140 P0000 60000 T01170106 10128 20100 401671006 58016 $
KPWG 
25nm SE 
190556Z AUTO 16011KT 5SM BR OVC003 12/12 A2997 RMK AO2 RAE41 SLP165 P0000 60000 T01220117 10133 20117 401561006 58015
KGOP 
26nm SW 
190555Z AUTO 15005KT 3SM BR OVC002 12/12 A2998 RMK AO2
KCNW 
28nm SE 
190455Z 14003KT 10SM BKN014 11/10 A3000
KINJ 
29nm NE 
190555Z AUTO 11014G18KT 10SM SCT012 SCT075 OVC100 12/12 A2993 RMK AO2 T01160116 10125 20096 401720008
KMNZ 
31nm W 
190555Z AUTO 17008KT 3SM BR OVC002 11/11 A2996 RMK AO2 T01110111 10132 20103 401920030
KCPT 
33nm N 
190555Z AUTO 14007KT 10SM BKN008 BKN080 BKN110 10/10 A2995 RMK AO2
KSEP 
39nm NW 
190555Z AUTO 17004KT 10SM CLR 10/09 A2996 RMK AO2 T01020085 10135 20102 401920010
KGDJ 
40nm N 
AWOS-3 118.925 817-573-7514
190555Z AUTO 00000KT 10SM BKN100 11/09 A2995 RMK AO2 T01080088 10137 20107 401860000
KHLR 
42nm S 
190558Z AUTO 15007KT 9SM OVC003 12/11 A2993 RMK AO2 SLP132 T01200112 10136 20117 401730019 58007
TAF
KACT 
21nm SE 
190536Z 1906/2006 16007KT 4SM BR VCSH OVC008 FM190800 14004KT 2SM BR VCSH OVC004 FM191400 01004KT 5SM BR OVC008 FM191700 01005KT 6SM BR BKN020 FM200000 01004KT P6SM BKN035
NOTAMs
Click for the latest NOTAMs
NOTAMs are issued by the DoD/FAA and will open in a separate window not controlled by AirNav.

 

 
 

FBO, Fuel Providers, and Aircraft Ground Support

  
 Business Name 
 
 Contact 
 
 Services / Description 
 
Fuel Prices
 
Comments
  
Clifton Aero 254-675-3771
no information available

If you are affiliated with Clifton Aero and would like to show here your services, contact info, web link, logo, and more, click here
100LL
SS $4.22 
 Updated 18-Dec-2018
 
   2 read write
SS=Self service
Update Fuel Prices
 

Would you like to see your business listed on this page?

 If your business provides an interesting product or service to pilots, flight crews, aircraft, or users of the Clifton Municipal Airport/Isenhower Field, you should consider listing it here.  To start the listing process, click on the button below
 
Add a business
 

Other Pages about Clifton Municipal Airport/Isenhower Field

Update a link
 
Copyright © AirNav, LLC. All rights reserved. Privacy Policy  Contact